Location: Tierra del Sol
(32.6128°N, 116.3319°W)
Time: 10:12:17
(UTC-07:00)

Amateur Radio Satellites - All Passes

Search period start: 26 July 2014 09:42
Search period end: 27 July 2014 09:42
Location: Tierra del Sol, 32.6128°N, 116.3319°W

Satellite Date Start Highest point End Downlink Frequencies (MHz)
Time Altitude Azimuth
Sapphire 26 Jul 09:46:36 09:50:00 17° 52° (NE) 09:53:23 437.095 MHz 1200 baud AX-25 AFSK
Oscar 11 26 Jul 09:47:50 09:51:25 25° 97° (E) 09:54:59 145.825 FM, Beacon 2401.500 USB
FUNcube-1 26 Jul 10:02:55 10:04:11 11° 93° (E) 10:05:28 145.950 - 145.970 MHz USB
PCSat 26 Jul 10:19:14 10:24:09 34° 59° (ENE) 10:29:01 145.825 MHz
UKube-1 26 Jul 10:35:06 10:39:10 39° 287° (WNW) 10:43:12 145.840 MHz, 145.915 MHz
PANSAT 26 Jul 10:35:48 10:38:35 19° 200° (SSW) 10:41:22 not established
HO-68 26 Jul 10:38:36 10:45:23 48° 291° (WNW) 10:52:09 435.675 MHz FM
Oscar 11 26 Jul 11:24:07 11:27:26 22° 290° (WNW) 11:30:45 145.825 FM, Beacon 2401.500 USB
Sapphire 26 Jul 11:28:28 11:33:48 60° 248° (WSW) 11:39:06 437.095 MHz 1200 baud AX-25 AFSK
FUNcube-1 26 Jul 11:36:48 11:40:45 43° 286° (WNW) 11:44:44 145.950 - 145.970 MHz USB
RS-15 26 Jul 11:45:20 11:51:05 16° 100° (E) 11:56:44 29.354 - 29.394 USB, Beacon 29.352 USB
SO-50 26 Jul 11:49:10 11:51:25 14° 108° (ESE) 11:53:41 436.795 FM
PCSat 26 Jul 12:02:56 12:07:21 26° 253° (WSW) 12:11:45 145.825 MHz
Oscar 19 26 Jul 12:42:46 12:46:40 23° 68° (ENE) 12:50:34 437.125 CW, 437.150 USB
Oscar 16 26 Jul 13:09:33 13:14:23 45° 73° (ENE) 13:19:14 437.025 USB, Beacon 2401.1428
AO-Echo 26 Jul 13:20:36 13:24:52 26° 69° (ENE) 13:29:10 ?
ITAMSAT 1 26 Jul 13:25:12 13:29:32 27° 69° (ENE) 13:33:52 435.822 SSB
SO-50 26 Jul 13:27:16 13:31:31 45° 302° (WNW) 13:35:51 436.795 FM
AO-27 26 Jul 13:43:00 13:47:54 42° 72° (ENE) 13:52:48 436.795 MHz FM
Uribyol 2 26 Jul 13:44:40 13:49:36 46° 73° (ENE) 13:54:33 436.500 FM
RS-15 26 Jul 13:50:35 14:01:51 86° 116° (ESE) 14:12:49 29.354 - 29.394 USB, Beacon 29.352 USB
Gurwin Techsat 1B 26 Jul 13:51:16 13:54:56 19° 67° (ENE) 13:58:36 435.225 FM
JAS-1B 26 Jul 13:52:37 14:00:26 41° 65° (ENE) 14:09:11 435.800 - 435.900 CW/SSB
UOSAT-12 26 Jul 14:03:53 14:07:36 25° 111° (ESE) 14:11:24 437.025 FM, 437.400 FM
Oscar 19 26 Jul 14:21:10 14:25:46 34° 262° (W) 14:30:23 437.125 CW, 437.150 USB
Oscar 16 26 Jul 14:50:43 14:53:53 17° 266° (W) 14:57:04 437.025 USB, Beacon 2401.1428
AO-Echo 26 Jul 14:58:44 15:03:24 32° 263° (W) 15:08:09 ?
ITAMSAT 1 26 Jul 15:04:24 15:08:52 29° 263° (W) 15:13:23 435.822 SSB
TMSAT-1 26 Jul 15:06:32 15:11:49 78° 76° (ENE) 15:17:08 436.925 FM
KITSAT 1 26 Jul 15:15:02 15:22:08 32° 53° (NE) 15:29:09 435.175 FM
Uosat F 26 Jul 15:16:05 15:19:38 20° 67° (ENE) 15:23:11 435.120 FM
AO-27 26 Jul 15:23:58 15:27:31 18° 265° (W) 15:31:05 436.795 MHz FM
Uribyol 2 26 Jul 15:25:58 15:29:14 17° 266° (W) 15:32:30 436.500 FM
Gurwin Techsat 1B 26 Jul 15:29:30 15:34:31 43° 261° (W) 15:39:34 435.225 FM
JAS-1B 26 Jul 15:42:51 15:50:40 43° 264° (W) 15:59:37 435.800 - 435.900 CW/SSB
AO-7 26 Jul 15:43:18 15:51:16 51° 67° (ENE) 15:59:15 29.400 - 29.500 MHz
UOSAT-12 26 Jul 15:43:41 15:47:37 28° 306° (NW) 15:51:38 437.025 FM, 437.400 FM
OPAL 26 Jul 16:01:45 16:05:55 25° 99° (E) 16:10:06 ?
RS-15 26 Jul 16:06:57 16:15:32 25° 318° (NW) 16:24:05 29.354 - 29.394 USB, Beacon 29.352 USB
Saudisat 1A 26 Jul 16:14:43 16:16:21 12° 48° (NE) 16:17:59 436.775 MHz
Uosat F 26 Jul 16:53:24 16:58:06 39° 261° (W) 17:02:48 435.120 FM
JAS-2 26 Jul 16:57:42 17:03:17 22° 65° (ENE) 17:08:41 435.800 - 435.900 CW/SSB, 435.910 FM
KITSAT 1 26 Jul 17:10:00 17:17:41 50° 250° (WSW) 17:25:20 435.175 FM
AO-7 26 Jul 17:37:09 17:44:10 30° 262° (W) 17:51:16 29.400 - 29.500 MHz
OPAL 26 Jul 17:40:19 17:44:43 31° 292° (WNW) 17:49:09 ?
Hamsat 26 Jul 17:46:34 17:50:35 48° 75° (ENE) 17:54:36 145.90 MHz
Saudisat 1A 26 Jul 17:51:59 17:56:21 65° 244° (WSW) 18:00:41 436.775 MHz
STRAND 1 26 Jul 18:21:49 18:24:33 14° 94° (E) 18:27:16 ?
SO-67 26 Jul 18:25:52 18:27:54 15° 71° (ENE) 18:29:57 435.3500 MHz FM
JAS-2 26 Jul 18:39:47 18:47:37 70° 258° (WSW) 18:55:11 435.800 - 435.900 CW/SSB, 435.910 FM
HO-68 26 Jul 19:19:08 19:21:50 12° 57° (ENE) 19:24:31 435.675 MHz FM
SO-67 26 Jul 19:58:03 20:00:46 21° 264° (W) 20:03:29 435.3500 MHz FM
STRAND 1 26 Jul 19:59:02 20:03:58 50° 287° (WNW) 20:08:51 ?
Oscar 11 26 Jul 20:40:39 20:42:12 12° 67° (ENE) 20:43:45 145.825 FM, Beacon 2401.500 USB
RS-15 26 Jul 20:47:03 20:53:41 17° 33° (NNE) 21:00:24 29.354 - 29.394 USB, Beacon 29.352 USB
HO-68 26 Jul 21:01:14 21:08:24 81° 73° (ENE) 21:15:36 435.675 MHz FM
UKube-1 26 Jul 21:25:39 21:30:01 84° 258° (WSW) 21:34:25 145.840 MHz, 145.915 MHz
MaSat-1 26 Jul 21:40:49 21:44:32 81° 293° (WNW) 21:48:59 437.345 MHz
SO-50 26 Jul 22:02:51 22:07:27 45° 58° (ENE) 22:12:04 436.795 FM
Oscar 11 26 Jul 22:13:47 22:17:55 47° 260° (W) 22:22:05 145.825 FM, Beacon 2401.500 USB
FUNcube-1 26 Jul 22:28:20 22:32:43 82° 77° (ENE) 22:37:02 145.950 - 145.970 MHz USB
Lituanica SAT-1 26 Jul 22:53:00 22:54:13 15° 322° (NW) 22:55:25 437.275 MHz beacon
HO-68 26 Jul 22:53:14 22:56:41 14° 267° (W) 23:00:09 435.675 MHz FM
RS-15 26 Jul 22:57:40 23:08:41 65° 59° (ENE) 23:20:06 29.354 - 29.394 USB, Beacon 29.352 USB
ISS 26 Jul 23:00:42 23:03:25 23° 129° (SE) 23:06:08 145.800 FM
SO-50 26 Jul 23:44:42 23:47:38 16° 251° (WSW) 23:50:35 436.795 FM
UOSAT-12 27 Jul 00:16:46 00:21:29 74° 61° (ENE) 00:26:07 437.025 FM, 437.400 FM
Sapphire 27 Jul 00:22:55 00:27:44 34° 108° (ESE) 00:32:34 437.095 MHz 1200 baud AX-25 AFSK
ISS 27 Jul 00:37:13 00:40:02 25° 323° (NW) 00:42:53 145.800 FM
PCSat 27 Jul 00:55:53 01:01:16 79° 113° (ESE) 01:06:41 145.825 MHz
Oscar 19 27 Jul 01:00:58 01:02:11 11° 92° (E) 01:03:24 437.125 CW, 437.150 USB
RS-15 27 Jul 01:11:11 01:20:14 30° 255° (WSW) 01:29:39 29.354 - 29.394 USB, Beacon 29.352 USB
Oscar 16 27 Jul 01:26:23 01:30:27 23° 96° (E) 01:34:31 437.025 USB, Beacon 2401.1428
AO-Echo 27 Jul 01:35:46 01:36:13 10° 91° (E) 01:36:41 ?
ITAMSAT 1 27 Jul 01:44:01 01:46:30 13° 93° (E) 01:48:58 435.822 SSB
JAS-1B 27 Jul 01:47:23 01:51:50 15° 86° (E) 01:55:58 435.800 - 435.900 CW/SSB
AO-27 27 Jul 02:01:21 02:05:19 22° 96° (E) 02:09:15 436.795 MHz FM
Uribyol 2 27 Jul 02:02:38 02:06:44 24° 96° (E) 02:10:48 436.500 FM
Sapphire 27 Jul 02:06:37 02:11:08 27° 303° (WNW) 02:15:40 437.095 MHz 1200 baud AX-25 AFSK
Oscar 19 27 Jul 02:36:45 02:41:53 67° 285° (WNW) 02:47:01 437.125 CW, 437.150 USB
PCSat 27 Jul 02:42:50 02:45:16 13° 310° (NW) 02:47:43 145.825 MHz
Oscar 16 27 Jul 03:05:12 03:09:47 33° 289° (WNW) 03:14:21 437.025 USB, Beacon 2401.1428
AO-Echo 27 Jul 03:10:24 03:15:26 66° 285° (WNW) 03:20:15 ?
OPAL 27 Jul 03:12:41 03:16:48 27° 68° (ENE) 03:20:55 ?
ITAMSAT 1 27 Jul 03:21:13 03:26:16 55° 286° (WNW) 03:31:17 435.822 SSB
TMSAT-1 27 Jul 03:27:14 03:32:18 45° 99° (E) 03:37:20 436.925 FM
JAS-1B 27 Jul 03:34:16 03:43:39 89° 104° (ESE) 03:51:32 435.800 - 435.900 CW/SSB
AO-27 27 Jul 03:40:10 03:44:50 35° 289° (WNW) 03:49:29 436.795 MHz FM
Uribyol 2 27 Jul 03:41:38 03:46:10 32° 290° (WNW) 03:50:42 436.500 FM
Gurwin Techsat 1B 27 Jul 03:50:04 03:55:22 74° 285° (WNW) 04:00:39 435.225 FM
AO-7 27 Jul 03:51:27 03:57:20 21° 95° (E) 04:03:09 29.400 - 29.500 MHz
OPAL 27 Jul 04:51:25 04:55:34 27° 261° (W) 04:59:43 ?
Uosat F 27 Jul 05:05:20 05:10:22 87° 284° (WNW) 05:15:22 435.120 FM
Lituanica SAT-1 27 Jul 05:06:57 05:07:24 11° 36° (NE) 05:07:51 437.275 MHz beacon
TMSAT-1 27 Jul 05:08:18 05:11:49 18° 293° (WNW) 05:15:20 436.925 FM
PANSAT 27 Jul 05:10:55 05:14:04 24° 163° (SSE) 05:17:13 not established
JAS-1B 27 Jul 05:26:51 05:32:37 19° 304° (NW) 05:37:59 435.800 - 435.900 CW/SSB
STRAND 1 27 Jul 05:33:59 05:36:40 14° 65° (ENE) 05:39:20 ?
KITSAT 1 27 Jul 05:37:59 05:45:20 40° 108° (ESE) 05:52:41 435.175 FM
Hamsat 27 Jul 05:38:36 05:40:29 13° 93° (E) 05:42:22 145.90 MHz
AO-7 27 Jul 05:42:20 05:50:35 69° 290° (WNW) 05:58:46 29.400 - 29.500 MHz
JAS-2 27 Jul 05:57:39 06:01:27 18° 92° (E) 06:05:02 435.800 - 435.900 CW/SSB, 435.910 FM
MaSat-1 27 Jul 06:06:01 06:07:35 11° 52° (NE) 06:09:09 437.345 MHz
Lituanica SAT-1 27 Jul 06:38:16 06:39:23 14° 230° (SW) 06:40:30 437.275 MHz beacon
PANSAT 27 Jul 06:50:14 06:53:55 43° 175° (S) 06:57:36 not established
ISS 27 Jul 07:08:59 07:12:11 41° 41° (NE) 07:15:23 145.800 FM
STRAND 1 27 Jul 07:10:16 07:15:19 56° 259° (W) 07:20:23 ?
Hamsat 27 Jul 07:12:31 07:16:35 42° 286° (WNW) 07:20:39 145.90 MHz
SO-67 27 Jul 07:25:48 07:28:57 31° 98° (E) 07:32:04 435.3500 MHz FM
KITSAT 1 27 Jul 07:33:09 07:40:37 40° 304° (NW) 07:48:08 435.175 FM
AO-7 27 Jul 07:39:10 07:41:49 12° 308° (NW) 07:44:29 29.400 - 29.500 MHz
MaSat-1 27 Jul 07:40:22 07:45:41 88° 249° (WSW) 07:50:36 437.345 MHz
JAS-2 27 Jul 07:41:19 07:46:52 44° 289° (WNW) 07:51:55 435.800 - 435.900 CW/SSB, 435.910 FM
Saudisat 1A 27 Jul 07:53:55 07:58:20 84° 298° (WNW) 08:02:46 436.775 MHz
PANSAT 27 Jul 08:30:15 08:33:52 38° 188° (S) 08:37:28 not established
HO-68 27 Jul 08:35:45 08:40:31 19° 94° (E) 08:45:14 435.675 MHz FM
ISS 27 Jul 08:46:52 08:48:36 13° 234° (SW) 08:50:19 145.800 FM
SO-67 27 Jul 09:01:01 09:01:39 10° 291° (WNW) 09:02:17 435.3500 MHz FM
Sapphire 27 Jul 09:17:18 09:19:20 12° 49° (NE) 09:21:22 437.095 MHz 1200 baud AX-25 AFSK
UKube-1 27 Jul 09:19:13 09:22:42 23° 97° (E) 09:26:09 145.840 MHz, 145.915 MHz
